User: anonymous
Location: South Tamworth Observatory
(43.8246°N, 71.3026°W)
Time: 16:43:40
(UTC-04:00)
Language:

Cosmos 2208 Rocket - Orbit

View from above orbital plane
View from above orbital plane
View from above satellite
View from above satellite

Ground track
Ground track

The orbit data is extracted from the following two-line orbital elements,

1 22081U 92053B   14107.91009858  .00000221  00000-0  89485-4 0  5512
2 22081 074.0469 029.6721 0037173 281.8674 077.8309 14.33054730133189
Epoch (UTC): 17 April 2014 21:50:32
Eccentricity: 0.0037173
inclination: 74.0469°
perigee height: 755 km
apogee height: 808 km
right ascension of ascending node: 29.6721°
argument of perigee: 281.8674°
revolutions per day: 14.33054730
mean anomaly at epoch: 77.8309°
orbit number at epoch: 13318

The dashed part of the orbit path shows where the satellite is in the earth's shadow,  

DLR